DELTA 1 DEB (YO), 167

Orbit data source: Space-Track

DELTA 1 DEB (YO), 167 is space debris in LEO originally from a launch on Wed, 12 Jul 1961 UTC launched from the Air Force Eastern Test Range (AFETR). Debris objects in space refer to the collection of defunct objects orbiting the Earth. Examples of debris include non-operational satellites, rocket bodies, and fragments generated from explosions, collisions, or faulty payload assembly.

Loading next visibility...
Identifier
167, 1961-017D
Orbit
LEO
Country
Flag of USUS
Related business
Manufacturer
RCA/East Windsor
Mission
Spacecraft
Bus & Motor
Unknown
Mass
~1 kg wet, ~1 kg dry
Launch date (UTC)
1961-07-12 (64 years ago)
Launch vehicle
Unknown
Launch site
Air Force Eastern Test Range (AFETR)
Object type
Payload
Rocket body
Debris
Shape & HBR
Unknown shape, 0.1 m
Radar Cross Section
Small (<0.1 m²)

Expand to show TLE details & history
Last TLE update: 1 day ago

TLE from 1 day ago
0 DELTA 1 DEB (YO)
1 00167U 61017D   25307.39619757  .00000083  00000-0  97235-4 0  9994
2 00167  47.8463 321.1751 0091160 266.7371  92.3080 14.24034286332494
Epoch: 2025-11-03T09:30Z
TLE epoch observation values (Epoch: 2025-11-03T09:30:31.470Z)
Latitude
-0.00001°
Longitude
135.64579°
Altitude
815.279 km
Speed
7.445 km/s
True Right ascension
21h 24m 42s
True Declination
0° 00' 00"
Sunlit
Object was in daylight at epoch
Visualization orbit readout
Latitude
Unknown
Longitude
Unknown
Altitude
Unknown
Speed
Unknown
Apparent Right ascension
Unknown
Apparent Declination
Unknown
Sunlit
N/A
Visualization observer readout
Local Sidereal Time
15:44:17
Azimuth
Unknown
Elevation
Unknown
Doppler factor
Unknown
Orbital elements
Apogee altitude
878.374 km
Perigee altitude
747.269 km
Semi-major axis
7,190.959 km
Eccentricity
0.00912
Inclination
47.8463°
RAAN
321.1751°
Arg. of periapsis
266.7371°
True anomaly
93.35123°
Mean anomaly
92.308°
Eccentric anomaly
92.82967°
Mean motion
3.55929 °/min
Orbital period
101.14 mins
BSTAR
0.000097235
Loading maneuver chart data...
Computing Atmospheric mass density...
Loading historical data...
Loading historical data...
Loading historical data...
Loading historical data...
Loading historical data...
Loading historical data...
Loading historical data...
Other satellites on launch #17 in the year 1961 (1961-07-12 UTC)

Documentation

Showing up to 5 results
|